• Processing (Info)

  • MPEC 2019-W169 : 2019 WQ3

    The following Minor Planet Electronic Circular may be linked-to from your own Web pages, but must not otherwise be redistributed electronically.

    A form allowing access to any MPEC is at the bottom of this page.


    Read MPEC 2019-W168 Read MPEC 2019-W170


    M.P.E.C. 2019-W169                            Issued 2019 November 29, 13:44 UT
    
         The Minor Planet Electronic Circulars contain information on unusual
             minor planets and routine data on comets.  They are published
        on behalf of Division F of the International Astronomical Union by the
              Minor Planet Center, Smithsonian Astrophysical Observatory,
                              Cambridge, MA 02138, U.S.A.
    
                 Prepared using the Tamkin Foundation Computer Network
    
                                  MPC@CFA.HARVARD.EDU
                URL https://www.minorplanetcenter.net/    ISSN 1523-6714
    
                                    2019 WQ3                                 
    
    
    Observations:
         K19W03Q* C2019 11 27.26212601 25 04.26 +83 07 31.9          17.38oVEW169T08
         K19W03Q  C2019 11 27.26535001 25 52.31 +83 06 24.8          17.33oVEW169T08
         K19W03Q  C2019 11 27.27099101 27 16.10 +83 04 26.2          16.89oVEW169T08
         K19W03Q  C2019 11 27.28120001 29 46.40 +83 00 47.2          16.84oVEW169T08
         K19W03Q  C2019 11 27.33543901 42 30.23 +82 40 07.2          17.13oVEW169T08
         K19W03Q  C2019 11 27.33681901 42 48.74 +82 39 34.0          17.27oVEW169T08
         K19W03Q  C2019 11 27.33727901 42 55.15 +82 39 22.8          17.20oVEW169T08
         K19W03Q  C2019 11 27.33774001 43 01.60 +82 39 11.4          17.23oVEW169T08
         K19W03Q  C2019 11 27.35803301 47 31.90 +82 30 52.3          17.25oVEW169T08
         K19W03Q  C2019 11 27.36402401 48 50.50 +82 28 21.3          17.23oVEW169T08
         K19W03Q  C2019 11 27.37415701 51 01.68 +82 24 02.7          17.17oVEW169T08
         K19W03Q |C2019 11 27.40630 01 57 01.83 +82 07 15.0                VEW169H06
         K19W03Q |C2019 11 27.40801 01 57 23.47 +82 06 27.2                VEW169H06
         K19W03Q |C2019 11 27.40972 01 57 45.54 +82 05 40.1          17.2 GVEW169H06
         K19W03Q KC2019 11 27.64747 02 41 46.45 +80 06 10.6          16.5 RqEW169O75
         K19W03Q IC2019 11 27.64929 02 42 02.76 +80 05 07.7          16.5 RqEW169O75
         K19W03Q IC2019 11 27.65112 02 42 18.19 +80 04 05.7          15.9 RqEW169O75
         K19W03Q KC2019 11 27.67809 02 47 20.10 +79 46 14.2          16.0 RVEW169K61
         K19W03Q KC2019 11 27.67869 02 47 25.24 +79 45 53.6          15.8 RVEW169K61
         K19W03Q KC2019 11 27.67929 02 47 30.26 +79 45 33.5          15.8 RVEW169K61
         K19W03Q KC2019 11 27.67975 02 47 34.09 +79 45 17.7          15.9 RVEW169K61
         K19W03Q KC2019 11 27.68146 02 47 48.55 +79 44 18.9          15.8 RVEW169K61
         K19W03Q KC2019 11 27.68172 02 47 50.73 +79 44 09.7          16.2 RVEW169K61
         K19W03Q KC2019 11 27.68233 02 47 55.77 +79 43 48.9          16.0 RVEW169K61
         K19W03Q KC2019 11 27.68239 02 47 56.32 +79 43 46.7          16.0 RVEW169K61
         K19W03Q KC2019 11 27.74963 02 56 44.81 +79 04 33.0          16.8 VtEW169L04
         K19W03Q KC2019 11 27.75361 02 57 14.25 +79 02 07.3          16.6 VtEW169L04
         K19W03Q KC2019 11 27.76059 02 58 05.63 +78 57 50.6          16.5 VtEW169L04
         K19W03Q KC2019 11 27.99458 03 23 35.56 +76 18 38.0          16.7 GVEW169W34
         K19W03Q KC2019 11 28.00593 03 24 35.36 +76 10 33.6          16.7 GVEW169W34
         K19W03Q KC2019 11 28.00976 03 24 55.28 +76 07 49.1          16.6 GVEW169W34
         K19W03Q KC2019 11 28.01319 03 25 12.94 +76 05 21.3          16.6 GVEW169W34
         K19W03Q KC2019 11 28.01497 03 25 22.02 +76 04 05.6          16.4 GVEW169W34
         K19W03Q  C2019 11 28.42780 03 53 57.63 +70 23 53.1          17.2 RmEW169P93
         K19W03Q  C2019 11 28.43142 03 54 08.66 +70 20 40.6          17.5 RmEW169P93
         K19W03Q  C2019 11 28.43324 03 54 14.15 +70 19 03.3          17.4 RmEW169P93
         K19W03Q  C2019 11 28.43505 03 54 19.82 +70 17 25.6          17.7 RmEW169P93
         K19W03Q  C2019 11 28.81297 04 11 02.98 +64 01 58.3          16.8 GVEW169Z84
         K19W03Q  C2019 11 28.81330 04 11 03.74 +64 01 36.8          16.4 GVEW169Z84
         K19W03Q  C2019 11 28.81364 04 11 04.43 +64 01 15.4          16.3 GVEW169Z84
         K19W03Q  C2019 11 28.81398 04 11 05.13 +64 00 54.2          16.2 GVEW169Z84
         K19W03Q  C2019 11 28.81431 04 11 05.85 +64 00 32.6          16.4 GVEW169Z84
         K19W03Q  C2019 11 28.81465 04 11 06.55 +64 00 11.6          16.3 GVEW169Z84
         K19W03Q  C2019 11 28.81498 04 11 07.24 +63 59 50.4          16.3 GVEW169Z84
         K19W03Q  C2019 11 28.81532 04 11 07.98 +63 59 29.2          16.5 GVEW169Z84
         K19W03Q KC2019 11 28.93450 04 14 48.76 +61 50 08.6          16.2 GVEW169203
         K19W03Q KC2019 11 28.93690 04 14 53.03 +61 47 27.6          15.8 GVEW169203
         K19W03Q KC2019 11 28.94112 04 15 00.53 +61 42 44.1          15.9 GVEW169203
         K19W03Q KC2019 11 28.97611304 16 01.72 +61 03 10.3                VEW169204
         K19W03Q KC2019 11 28.97769104 16 04.42 +61 01 22.4                VEW169204
         K19W03Q KC2019 11 28.97850704 16 05.81 +61 00 26.6                VEW169204
         K19W03Q KC2019 11 28.97934704 16 07.25 +60 59 29.2          16.1 GVEW169204
         K19W03Q KC2019 11 28.98023804 16 08.80 +60 58 28.1                VEW169204
         K19W03Q  C2019 11 29.40542204 27 38.67 +52 22 13.3          15.89cVEW169T05
         K19W03Q  C2019 11 29.40863104 27 42.31 +52 18 05.0          15.89cVEW169T05
         K19W03Q  C2019 11 29.41423804 27 48.65 +52 10 50.4          15.91cVEW169T05
         K19W03Q  C2019 11 29.42413004 27 59.77 +51 58 01.3          15.56cVEW169T05
         K19W03Q  C2019 11 29.48793 04 29 43.86 +50 31 56.8          16.3 RrEW169P93
         K19W03Q  C2019 11 29.48848 04 29 44.51 +50 31 13.5          16.5 RrEW169P93
         K19W03Q  C2019 11 29.48904 04 29 45.11 +50 30 30.2          16.3 RrEW169P93
         K19W03Q  C2019 11 29.48960 04 29 45.77 +50 29 46.5          16.3 RrEW169P93
         K19W03Q  C2019 11 29.49016 04 29 46.36 +50 29 02.8          16.2 RrEW169P93
    
    Observer details:
    203 GiaGa Observatory.  Observers S. Foglia, G. Galli.  Measurer G. Galli.  
        0.36-m f/5.76 Schmidt-Cassegrain + CCD.
    204 Schiaparelli Observatory.  Observer L. Buzzi.  0.84-m f/3.5 reflector + CCD.
    H06 iTelescope Observatory, Mayhill.  Observer H. Sato.  0.25-m f/3.4 
       astrograph + CCD.
    K61 Rokycany Observatory.  Observer M. Adamovsky.  0.51-m f/6.8 reflector + CCD.
    L04 ROASTERR-1 Observatory, Cluj-Napoca.  Observer L. Hudin.  0.3-m f/5 
       reflector + CCD.
    O75 ISON-Hureltogoot Observatory.  Observers L. Elenin, N. Tungalag.  Measurer 
       L. Elenin.  0.4-m f/2.4 reflector + CCD.
    P93 Space Tracking and Communications Center, JAXA.  Observers S. Okumura, S. 
       Urakawa, T. Nimura.  0.5-m f/2.0 reflector + CCD.
    T05 ATLAS-HKO, Haleakala.  Observers L. Denneau, J. Tonry, A. Heinze, H. 
       Weiland, H. Flewelling.  Measurers L. Denneau, J. Tonry, A. Heinze, H. 
       Weiland, H. Flewelling, B. Stalder, A. Fitzsimmons, J. Robinson, N. Erasmus. 
        0.5-m reflector + CCD.
    T08 ATLAS-MLO, Mauna Loa.  Observers L. Denneau, J. Tonry, A. Heinze, H. 
       Weiland, H. Flewelling.  Measurers L. Denneau, J. Tonry, A. Heinze, H. 
       Weiland, H. Flewelling, B. Stalder, A. Fitzsimmons, J. Robinson, N. Erasmus. 
        0.5-m reflector + CCD.
    W34 Squirrel Valley Observatory, Columbus.  Observer R. L. Flynn.  0.35-m f/1.9 
       Schmidt-Cassegrain + CCD.
    Z84 Calar Alto-Schmidt.  Observer E. Schwab.  Measurers E. Schwab, D. Koschny, 
       M. Micheli.  0.8-m f/3 Schmidt + CCD.
    
    Orbital elements:
    2019 WQ3                                                 Earth MOID = 0.0251 AU
    Epoch 2020 May 31.0 TT = JDT 2459000.5                  Veres
    M  89.87107              (2000.0)            P               Q
    n   0.44668990     Peri.  157.82169     +0.64999055     -0.60375083
    a   1.6948527      Node   248.03810     +0.60087404     +0.78011389
    e   0.4161158      Incl.   29.84317     +0.46525550     -0.16403429
    P   2.21           H   22.4           G   0.15           U   6
    Residuals in seconds of arc
    191127 T08  0.2+  0.3-    191127 K61  0.3+  0.2-    191128 Z84  0.0   0.2-
    191127 T08  0.1-  0.1-    191127 K61  0.3+  0.5-    191128 Z84  0.0   0.6-
    191127 T08  0.3-  0.0     191127 K61  0.1+  0.3-    191128 Z84  0.2+  0.4-
    191127 T08  0.1-  0.3-    191127 K61  0.2+  0.4-    191128 203  0.1+  0.0
    191127 T08  0.1-  0.1-    191127 L04  0.1+  0.4-    191128 203  0.0   0.0
    191127 T08  0.5-  0.1-    191127 L04  0.0   0.5-    191128 203  0.0   0.0
    191127 T08  0.1-  0.2-    191127 L04  0.5+  0.7-    191128 204  0.0   0.1+
    191127 T08  0.3+  0.4-    191127 W34  0.2+  0.3-    191128 204  0.1-  0.1+
    191127 T08  0.3-  0.0     191128 W34  0.2+  0.2-    191128 204  0.1-  0.1+
    191127 T08  0.1-  0.2-    191128 W34  0.3+  0.5-    191128 204  0.1-  0.2+
    191127 T08  0.3-  0.1-    191128 W34  0.0   0.8-    191128 204  0.0   0.1+
    191127 H06  0.2-  0.1+    191128 W34  0.2-  0.2+    191129 T05  0.2+  0.1-
    191127 H06  0.5-  0.4-    191128 P93  0.4+  0.7-    191129 T05  0.2+  0.1-
    191127 H06  0.2+  0.1-    191128 P93  0.5-  0.2+    191129 T05  0.3+  0.1-
    191127 O75  0.5-  0.5+    191128 P93  1.2-  0.4+    191129 T05  0.5+  0.3-
    191127 O75  1.3+  0.2+    191128 P93  0.6-  0.4-    191129 P93  0.1+  0.1-
    191127 O75  0.7+  1.3+    191128 Z84  0.4-  0.6+    191129 P93  0.3+  0.5-
    191127 K61  0.1+  0.8-    191128 Z84  0.1+  0.1-    191129 P93  0.1-  0.0
    191127 K61  0.3+  0.8-    191128 Z84  0.1-  0.1-    191129 P93  0.1+  0.0
    191127 K61  0.2+  0.2-    191128 Z84  0.1-  0.1+    191129 P93  0.4-  0.0
    191127 K61  0.1+  0.2-    191128 Z84  0.1+  0.7-
    
    Ephemeris:
    2019 WQ3                 a,e,i = 1.69, 0.42, 30                  q = 0.9896
    Date    TT    R. A. (2000) Decl.     Delta      r    Elong.  Phase     V
    2019 10 30    17 33 29.1 +58 13 05   0.3054  0.9997    82.4    80.0    22.6
    ...
    2019 11 14    17 39 59.8 +62 20 20   0.1656  0.9899    85.3    85.1    21.5
    ...
    2019 11 22    17 58 52.4 +70 02 53   0.08706 0.9961    92.9    82.1    20.0
    ...
    2019 11 28    03 23 03.9 +76 14 35   0.03314 1.0059   124.6    53.9    17.0
    2019 11 29    04 16 47.1 +60 35 25   0.02742 1.0079   140.7    38.3    16.1
    2019 11 30    04 38 29.2 +38 49 23   0.02486 1.0101   162.3    17.3    15.3
    ...
    2019 12 06    05 09 49.6 -31 19 48   0.06550 1.0253   126.0    51.0    18.4
    ...
    2019 12 14    05 17 16.3 -43 01 44   0.1449  1.0512   113.8    59.0    20.4
    ...
    2019 12 29    05 21 53.4 -45 59 52   0.2938  1.1146   109.1    56.5    22.0
    
    A. U. Tomatic                (C) Copyright 2019 MPC           M.P.E.C. 2019-W169
    


    Read MPEC 2019-W168 Read MPEC 2019-W170


    MPEC number:

    Enter an MPEC number in one of the following forms:

    • 1997-B01 (the full form)
    • J97B01 (the packed version of the full form)
    • B01 (the abbreviated form)